Other Public Products
Issued by NWS Charleston, SC

Home | Current Version | Previous Version | Text Only | Print | Product List | Glossary On
Versions: 1 2 3 4 5 6 7 8 9 10 11 12 13 14 15 16 17 18 19 20 21 22 23 24 25 26 27 28 29 30 31 32 33 34 35 36 37 38 39 40 41 42 43 44 45 46 47 48 49 50
000
FPUS82 KCHS 091127
OPUCHS

TEST...KCHS/KSAV Gateway Observations...TEST
National Weather Service Charleston SC
600 AM EST FRI DEC 09 2016

NOTE: "fair" indicates few or no clouds below 12,000 feet with no
significant weather and/or obstructions to visibility.

SCZ050-WAZ558-NCZ071-TXZ119-213-PAZ071-DCZ001-FLZ074-172-MI076-
NYZ176-178-MAZ016-IL014-TNZ027-NJZ106-GAZ044-MD014-091200-
...Gateway Observations for Charleston International...

CITY           SKY/WX    TMP DP  RH WIND       PRES   REMARKS
Chas Airport   PTCLDY    37  28  70 N5        30.34R WCI  33
Seattle        LGT SNOW  31  30  96 CALM      29.97R FOG
Charlotte      PTCLDY    30  14  51 N8        30.34R WCI  22
Dallas DFW     PTCLDY    26  18  71 N5        30.63F WCI  20
Dallas Love    PTCLDY    27  16  63 N5        30.65S WCI  22
Philladelphia  CLEAR     30  16  56 W10       30.18R WCI  21
Wash National  PTCLDY    31  13  47 NW16G22   30.27R WCI  20
Baltimore      PTCLDY    28  14  55 W13       30.24R WCI  17
Miami          CLOUDY    70  61  73 N9        30.12R
Detroit        FLURRIES  26  22  84 W8        30.32R WCI  18
Newark         PTCLDY    31  17  56 W18       30.07R WCI  19
Laguardia      PTCLDY    34  18  52 W13G25    30.05R WCI  25
J F K          PTCLDY    33  17  51 W17G23    30.07R WCI  22
Boston Logan   PTCLDY    32  18  56 W15       29.88R WCI  22
Ft. Lauderdale CLOUDY    70  61  73 N13       30.12R
Chicago O`Hare CLOUDY    22  16  78 W9        30.45S WCI  12
Chicago Midway FLURRIES  23  15  71 W7        30.47R WCI  15
Houston Bush   CLOUDY    38  25  59 N10       30.58R WCI  31
Houston Hobby  CLOUDY    40  26  57 N18       30.56S WCI  31
Nashville      CLOUDY    26  15  63 NW6       30.56R WCI  19
Atlanta        CLEAR     28  16  60 NW12      30.40R WCI  18

$$

GAZ044-118-TXZ119-213-NCZ071-DCZ001-MDZ014-506-PAZ021-071-NJZ106-
NYZ176-178-MAZ106-OHZ011-021-055-MIZ076-KYZ091-ILZ014-INZ047-
MNZ060-091200-
...Gateway Observations for Savannah International...

CITY           SKY/WX    TMP DP  RH WIND       PRES   REMARKS
Savannah Arpt  MOCLDY    40  26  57 N8        30.35R WCI  34
Atlanta        CLEAR     28  16  60 NW12      30.40R WCI  18
Charlotte      PTCLDY    30  14  51 N8        30.34R WCI  22
Dallas DFW     PTCLDY    26  18  71 N5        30.63F WCI  20
Houston Bush   CLOUDY    38  25  59 N10       30.58R WCI  31
Wash National  PTCLDY    31  13  47 NW16G22   30.27R WCI  20
Wash Dulles    CLEAR     27  11  51 NW7       30.26R WCI  19
Baltimore      PTCLDY    28  14  55 W13       30.24R WCI  17
Philadelphia   CLEAR     30  16  56 W10       30.18R WCI  21
Newark         PTCLDY    31  17  56 W18       30.07R WCI  19
Laguardia      PTCLDY    34  18  52 W13G25    30.05R WCI  25
J F K          PTCLDY    33  17  51 W17G23    30.07R WCI  22
Boston         PTCLDY    32  18  56 W15       29.88R WCI  22
Pittsburg      FLURRIES  23  17  78 W16G23    30.28R WCI  10
Akron          FLURRIES  22  16  78 W12       30.31R WCI  10
Cleveland      FLURRIES  25  17  72 SW15      30.35R WCI  13
Cincinnati     FLURRIES  22  14  71 W13       30.48R WCI  10
Columbus         N/A     21  15  77 W10       30.44R WCI  10
Detroit        FLURRIES  26  22  84 W8        30.32R WCI  18
Chicago O`Hare CLOUDY    22  16  78 W9        30.45S WCI  12
Minneapolis    CLOUDY    14   9  80 W7        30.54S WCI   4
Indianapolis   FLURRIES  21  16  81 W9        30.49S WCI  11

$$




USA.gov is the U.S. government's official web portal to all federal, state and local government web resources and services.